Weather History for Newberry, SC

Change the Weather History Date:

Tuesday, October 9, 2012

  Actual Average (KFDW) Record (KFDW)
Temperature  
Mean Temperature 50 °F -  
Max Temperature 55 °F 74 °F 84 °F (2010)
Min Temperature 44 °F 51 °F 50 °F (2012)
Degree Days  
Heating Degree Days 16    
Moisture  
Dew Point 49 °F    
Average Humidity 94    
Maximum Humidity 100    
Minimum Humidity 77    
Precipitation  
Precipitation 0.00 in - - ()
Sea Level Pressure  
Sea Level Pressure 30.17 in    
Wind  
Wind Speed 5 mph (North)    
Max Wind Speed 8 mph    
Max Gust Speed -    
Visibility 9 miles    
Events      
Averages and records for this station are not official NWS values.
T = Trace of Precipitation, MM = Missing Value Source: NWS Daily Summary

Daily Weather History Graph

Daily Weather History Graph

Search for Another Location

Airport:

Trip Planner

Search our weather history database for the weather conditions in past years. The results will help you decide how hot, cold, wet, or windy it might be!

Date:

Astronomy

Oct. 09, 2012 Rise Set
Actual Time 7:27 AM EDT 6:59 PM EDT
Civil Twilight 7:02 AM EDT 7:24 PM EDT
Nautical Twilight 6:33 AM EDT 7:53 PM EDT
Astronomical Twilight 6:04 AM EDT 8:22 PM EDT
Moon 1:18 AM EDT (10/9) 3:11 PM EDT (10/9)
Length of Visible Light 12h 22m
Length of Day
11h 31m
Last Quarter, 37% of the Moon is Illuminated
Oct 9
Last Quarter
Oct 15
New
Oct 21
First Quarter
Oct 29
Full
Nov 6
Last Quarter

Hourly Weather History & Observations

Time (EDT) Temp. Dew Point Humidity Pressure Visibility Wind Dir Wind Speed Gust Speed Precip Events Conditions
12:15 AM 50.0 °F 50.0 °F 100% 30.18 in 10.0 mi NNE 6.9 mph - N/A   Overcast
12:35 AM 50.0 °F 50.0 °F 100% 30.18 in 7.0 mi North 8.1 mph - N/A   Overcast
12:55 AM 50.0 °F 50.0 °F 100% 30.18 in 7.0 mi NNE 6.9 mph - N/A   Overcast
1:15 AM 50.0 °F 50.0 °F 100% 30.17 in 5.0 mi NNE 8.1 mph - N/A   Overcast
1:55 AM 50.0 °F 50.0 °F 100% 30.18 in 4.0 mi NNE 5.8 mph - N/A   Overcast
2:15 AM 50.0 °F 50.0 °F 100% 30.17 in 4.0 mi North 8.1 mph - N/A   Overcast
2:55 AM 50.0 °F 50.0 °F 100% 30.17 in 4.0 mi North 8.1 mph - N/A   Overcast
3:35 AM 48.2 °F 48.2 °F 100% 30.16 in 10.0 mi NNE 8.1 mph - N/A   Overcast
3:55 AM 48.2 °F 48.2 °F 100% 30.16 in 7.0 mi NNE 6.9 mph - N/A   Overcast
4:15 AM 48.2 °F 48.2 °F 100% 30.16 in 5.0 mi NNE 4.6 mph - N/A   Overcast
4:35 AM 48.2 °F 48.2 °F 100% 30.16 in 5.0 mi North 3.5 mph - N/A   Overcast
4:55 AM 48.2 °F 48.2 °F 100% 30.16 in 4.0 mi North 3.5 mph - N/A   Overcast
5:15 AM 50.0 °F 50.0 °F 100% 30.16 in 4.0 mi North 3.5 mph - N/A   Overcast
5:35 AM 50.0 °F 50.0 °F 100% 30.16 in 5.0 mi North 8.1 mph - N/A   Overcast
5:55 AM 48.2 °F 48.2 °F 100% 30.16 in 10.0 mi North 5.8 mph - N/A   Overcast
6:15 AM 48.2 °F 48.2 °F 100% 30.17 in 10.0 mi North 6.9 mph - N/A   Overcast
6:35 AM 48.2 °F 48.2 °F 100% 30.18 in 7.0 mi North 5.8 mph - N/A   Overcast
6:55 AM 48.2 °F 48.2 °F 100% 30.19 in 10.0 mi NNE 4.6 mph - N/A   Overcast
7:15 AM 48.2 °F 48.2 °F 100% 30.19 in 7.0 mi North 4.6 mph - N/A   Overcast
7:55 AM 48.2 °F 48.2 °F 100% 30.20 in 5.0 mi Calm Calm - N/A   Overcast
8:15 AM 48.2 °F 48.2 °F 100% 30.21 in 3.0 mi Calm Calm - N/A   Overcast
8:35 AM 48.2 °F 48.2 °F 100% 30.21 in 3.0 mi North 5.8 mph - N/A   Overcast
8:55 AM 50.0 °F 50.0 °F 100% 30.22 in 5.0 mi North 3.5 mph - N/A   Overcast
9:15 AM 50.0 °F 50.0 °F 100% 30.22 in 7.0 mi North 4.6 mph - N/A   Overcast
9:35 AM 50.0 °F 50.0 °F 100% 30.22 in 10.0 mi North 3.5 mph - N/A   Overcast
9:55 AM 50.0 °F 50.0 °F 100% 30.22 in 7.0 mi Calm Calm - N/A   Overcast
10:15 AM 50.0 °F 50.0 °F 100% 30.22 in 10.0 mi North 5.8 mph - N/A   Overcast
10:35 AM 50.0 °F 50.0 °F 100% 30.22 in 10.0 mi North 3.5 mph - N/A   Overcast
10:55 AM 51.8 °F 50.0 °F 94% 30.21 in 10.0 mi North 4.6 mph - N/A   Overcast
11:15 AM 51.8 °F 50.0 °F 94% 30.21 in 10.0 mi North 5.8 mph - N/A   Overcast
11:35 AM 51.8 °F 50.0 °F 94% 30.21 in 10.0 mi North 4.6 mph - N/A   Overcast
11:55 AM 51.8 °F 50.0 °F 94% 30.21 in 10.0 mi Calm Calm - N/A   Overcast
12:15 PM 53.6 °F 48.2 °F 82% 30.21 in 10.0 mi Calm Calm - N/A   Overcast
12:35 PM 53.6 °F 46.4 °F 77% 30.20 in 10.0 mi North 4.6 mph - N/A   Overcast
12:55 PM 53.6 °F 48.2 °F 82% 30.19 in 10.0 mi NNE 6.9 mph - N/A   Overcast
1:15 PM 53.6 °F 48.2 °F 82% 30.18 in 10.0 mi NE 4.6 mph - N/A   Overcast
1:35 PM 53.6 °F 48.2 °F 82% 30.18 in 10.0 mi North 5.8 mph - N/A   Overcast
1:55 PM 53.6 °F 48.2 °F 82% 30.17 in 10.0 mi NNW 6.9 mph - N/A   Overcast
2:15 PM 53.6 °F 48.2 °F 82% 30.17 in 10.0 mi North 3.5 mph - N/A   Overcast
2:35 PM 53.6 °F 48.2 °F 82% 30.16 in 10.0 mi North 4.6 mph - N/A   Overcast
2:55 PM 55.4 °F 48.2 °F 77% 30.16 in 10.0 mi North 4.6 mph - N/A   Overcast
3:15 PM 53.6 °F 48.2 °F 82% 30.16 in 10.0 mi NNW 4.6 mph - N/A   Overcast
3:35 PM 55.4 °F 48.2 °F 77% 30.16 in 10.0 mi Calm Calm - N/A   Overcast
3:55 PM 55.4 °F 50.0 °F 82% 30.16 in 10.0 mi North 5.8 mph - N/A   Overcast
4:15 PM 55.4 °F 48.2 °F 77% 30.15 in 10.0 mi NNE 5.8 mph - N/A   Overcast
4:35 PM 53.6 °F 48.2 °F 82% 30.15 in 10.0 mi NNE 3.5 mph - N/A   Overcast
4:55 PM 53.6 °F 50.0 °F 88% 30.15 in 10.0 mi Calm Calm - N/A   Overcast
5:15 PM 55.4 °F 48.2 °F 77% 30.15 in 10.0 mi North 3.5 mph - N/A   Overcast
5:35 PM 53.6 °F 48.2 °F 82% 30.14 in 10.0 mi NNE 5.8 mph - N/A   Overcast
5:55 PM 53.6 °F 50.0 °F 88% 30.15 in 10.0 mi Calm Calm - N/A   Overcast
6:15 PM 53.6 °F 50.0 °F 88% 30.15 in 10.0 mi Calm Calm - N/A   Overcast
6:35 PM 53.6 °F 50.0 °F 88% 30.14 in 10.0 mi Calm Calm - N/A   Overcast
6:55 PM 53.6 °F 50.0 °F 88% 30.14 in 10.0 mi Calm Calm - N/A   Overcast
7:15 PM 53.6 °F 50.0 °F 88% 30.14 in 10.0 mi North 3.5 mph - N/A   Overcast
7:35 PM 53.6 °F 50.0 °F 88% 30.14 in 10.0 mi North 3.5 mph - N/A   Overcast
7:55 PM 53.6 °F 50.0 °F 88% 30.14 in 10.0 mi North 3.5 mph - N/A   Overcast
8:15 PM 51.8 °F 50.0 °F 94% 30.15 in 10.0 mi NE 3.5 mph - N/A   Mostly Cloudy
8:35 PM 50.0 °F 50.0 °F 100% 30.15 in 10.0 mi NNE 3.5 mph - N/A   Clear
8:55 PM 50.0 °F 50.0 °F 100% 30.15 in 10.0 mi Calm Calm - N/A   Clear
9:15 PM 48.2 °F 48.2 °F 100% 30.15 in 10.0 mi Calm Calm - N/A   Clear
9:35 PM 46.4 °F 46.4 °F 100% 30.16 in 10.0 mi Calm Calm - N/A   Clear
9:55 PM 46.4 °F 46.4 °F 100% 30.16 in 10.0 mi Calm Calm - N/A   Clear
10:15 PM 46.4 °F 46.4 °F 100% 30.16 in 10.0 mi Calm Calm - N/A   Clear
10:35 PM 46.4 °F 46.4 °F 100% 30.15 in 10.0 mi Calm Calm - N/A   Clear
10:55 PM 46.4 °F 46.4 °F 100% 30.15 in 10.0 mi Calm Calm - N/A   Clear
11:15 PM 46.4 °F 46.4 °F 100% 30.16 in 10.0 mi Calm Calm - N/A   Clear
11:35 PM 44.6 °F 44.6 °F 100% 30.16 in 10.0 mi Calm Calm - N/A   Clear
11:55 PM 44.6 °F 44.6 °F 100% 30.15 in 10.0 mi Calm Calm - N/A   Clear